Showing default

CYGFM02, 41886

Orbit data source: Space-Track

CYGFM02, 41886 is an American payload satellite in LEO that was launched on Thu, 15 Dec 2016 UTC via a PEGASUS XL launch vehicle from the Pegasus Launch, Eastern Range Air Space (ERAS). Payloads include a variety of satellites, spacecraft, and rockets equipped with specific instruments for various scientific and technological missions. These include communications satellites like Starlink; space stations such as the ISS; scientific satellites like the Hubble; Earth observation satellites from companies like Planet Labs, Umbra, and HawkEye 360; GPS; miniature CubeSats for education and research; and military/defense satellites.

Loading next visibility...
CYGFM02 details
Identifier
41886, 2016-078C
Orbit
LEO
Last TLE update22 hours ago
Origin
Flag of USLARCN/SWRIB (US)
ManufacturerSST-US
MissionExtended mission Civil Science
Bus & MotorCYGNSS, Unknown motor
Mass29 kg wet, 29 kg dry
Launch date (UTC)
2016-12-15 (8 years ago)
Launch vehicle
PEGASUS XL
Launch site
Pegasus Launch, Eastern Range Air Space (ERAS)
Object type
Payload
Rocket body
Debris
Shape & HBRHalf Hex Cyl + 2 Pan, 1.7 m
Radar Cross Section0.450 m², Medium (>0.1 m² and < 1m²)

Expand to show TLE details & history

TLE from 22 hours ago
0 CYGFM02
1 41886U 16078C   24360.85442533  .00023611  00000-0  65221-3 0  9990
2 41886  34.9445 145.1944 0010701 157.5841 202.5346 15.36062536445660
Epoch: 2024-12-25T20:30Z
Definitive object data (Epoch: 2024-12-25T20:30:22.348Z)
Latitude-0.00001°
Longitude102.75907°
Altitude463.417 km
Speed7.633 km/s
True Right ascension09h 40m 46s
True Declination0° 00' 00"
Sunlit
Object was in full shadow at TLE epoch
Visualization TLE readout
Latitude26.3083°
Longitude-127.95082°
Altitude450.921 km
Speed7.65 km/s
Apparent Right ascension18h 22m 13s
Apparent Declination-40° 51' 23"
Sunlit
Object is in daylight
Visualization observer readout
Local Sidereal Time18:16:51
Azimuth178.972° S
Elevation9.218°
Doppler factor1
Orbital elements
Apogee altitude468.362 km
Perigee altitude453.725 km
Semi-major axis6,839.181 km
Eccentricity0.0010701
Inclination34.9445°
RAAN145.1944°
Arg. of periapsis157.5841°
True anomaly202.48766°
Mean anomaly202.5346°
Eccentric anomaly202.51113°
Mean motion3.8374 °/min
BSTAR0.00065221
Orbital period93.81 mins
Loading maneuver chart data...
Loading historical data...
Loading historical data...
Loading historical data...
Loading historical data...
Loading historical data...
Loading historical data...
Loading historical data...

CYGFM02 Visibility forecast

Observer location: undefined°, undefined

Span
Click to sort rows by Start time (UTC) header in descending order
Start Az.
Max El. time (UTC)
Max El. Az.
Max El.
End time (UTC)
End Az.
4 mins2024-12-27 13:18:17.226Z204.646° SW2024-12-27 13:20:17.226Z168.779° S18.191°2024-12-27 13:22:17.226Z126.604° SE
5 mins2024-12-27 14:57:17.226Z227.861° WSW2024-12-27 14:59:17.226Z168.521° S29.708°2024-12-27 15:02:17.226Z109.414° ESE
4 mins2024-12-27 16:36:17.226Z230.777° WSW2024-12-27 16:37:17.226Z204.366° SW25.811°2024-12-27 16:40:17.226Z133.305° SE
|